Regional Weather Roundup
Issued by NWS

Home | Current Version | Previous Version | Text Only | Print | Product List | Glossary Off
Versions: 1 2 3 4 5 6 7 8 9 10 11 12 13 14 15 16 17 18 19 20 21 22 23 24 25 26 27 28 29 30 31 32 33 34 35 36 37 38 39 40 41 42 43 44 45 46 47 48 49 50

775
ASUS43 KTOP 052108
RWRKS

WEATHER ROUNDUP FOR KANSAS
NATIONAL WEATHER SERVICE GOODLAND KS
400 PM CDT THU MAY 05 2016

NOTE:  "FAIR" INDICATES FEW OR NO CLOUDS BELOW 12,000 FEET WITH NO
SIGNIFICANT WEATHER AND/OR OBSTRUCTIONS TO VISIBILITY.

KSZ001>006-013>018-027>032-041>047-052200-
NORTHWEST KANSAS

CITY           SKY/WX    TMP DP  RH WIND       PRES   REMARKS
GOODLAND       PTSUNNY   78  41  26 S16       30.04F
HAYS           SUNNY     79  46  31 S8        30.05F
HILL CITY      SUNNY     82  45  27 S13G18    30.04F
RUSSELL        SUNNY     77  44  30 S6        30.04F
$$

KSZ061>065-074>080-084>089-052200-
SOUTHWEST KANSAS

CITY           SKY/WX    TMP DP  RH WIND       PRES   REMARKS
DODGE CITY     SUNNY     78  48  34 S10       30.06F
ELKHART          N/A     83  46  27 S6          N/A
GARDEN CITY    SUNNY     81  43  26 SE16G23   30.04F
GREAT BEND     SUNNY     79  45  29 E7        30.05F
LIBERAL        SUNNY     82  46  28 S12G18    30.04F
PRATT          SUNNY     75  40  27 SE5       30.07F
$$

KSZ066>073-081>083-090>101-052200-
SOUTHEAST KANSAS

CITY           SKY/WX    TMP DP  RH WIND       PRES   REMARKS
CHANUTE        SUNNY     77  43  29 N9        30.05F
COFFEYVILLE    SUNNY     77  44  30 NW9       30.04F
HUTCHINSON     SUNNY     80  39  23 E5        30.05F
MEDICINE LODGE   N/A     82  43  25 VRB5      30.05F
NEWTON         SUNNY     79  39  24 N6        30.08F
PARSONS        SUNNY     77  44  30 NE7       30.06F
WICHITA INTL   MOSUNNY   80  39  23 CALM      30.05F
WICHITA JABRA  SUNNY     78  40  25 CALM      30.05F
WICHITA MCCONL SUNNY     78  42  27 VRB3      30.05F
WINFIELD       SUNNY     79  41  25 CALM      30.36R
$$

KSZ007>012-019>026-033>040-048>060-102>105-052200-
NORTHEAST KANSAS

CITY           SKY/WX    TMP DP  RH WIND       PRES   REMARKS
CONCORDIA      SUNNY     77  35  21 CALM      30.04F
EMPORIA        SUNNY     76  40  27 NE7       30.05F
LAWRENCE       SUNNY     75  41  29 VRB5      30.05F
MANHATTAN      SUNNY     79  42  26 NE10      30.04F
MARYSVILLE     SUNNY     77  41  27 CALM      30.04F
OLATHE IND     SUNNY     73  39  29 N7        30.07F
OLATHE EXE     SUNNY     72  32  23 VRB5      30.06F
SALINA         SUNNY     79  41  25 CALM      30.05F
TOPEKA BILLARD SUNNY     75  42  30 N6        30.05F
TOPEKA FORBES  SUNNY     77  42  28 VRB5      30.05F
$$




USA.gov is the U.S. government's official web portal to all federal, state and local government web resources and services.